Regional Weather Roundup
Issued by NWS Charleston, WV

Home | Current Version | Previous Version | Text Only | Print | Product List | Glossary On
Versions: 1 2 3 4 5 6 7 8 9 10 11 12 13 14 15 16 17 18 19 20 21 22 23 24 25 26 27 28 29 30 31 32 33 34 35 36 37 38 39 40 41 42 43 44 45 46 47 48 49 50
000
ASUS41 KRLX 010410
RWRRLX
West Virginia Regional Weather Roundup
National Weather Service Charleston WV
1200 AM EDT WED JUL 01 2015

Note: "fair" indicates few or no clouds below 12,000 feet with no
significant weather and/or obstructions to visibility.

WVZ003-010500-
Northern Panhandle of West Virginia

CITY           SKY/WX    TMP DP  RH WIND       PRES   REMARKS
WHEELING       PTCLDY    61  58  90 S6        29.87S
$$

WVZ009-010500-
Northwest West Virginia

CITY           SKY/WX    TMP DP  RH WIND       PRES   REMARKS
PARKERSBURG    NOT AVBL
$$

WVZ006-010500-
Western West Virginia

CITY           SKY/WX    TMP DP  RH WIND       PRES   REMARKS
HUNTINGTON     MOCLDY    61  61 100 CALM      29.92S FOG
$$

WVZ015-010500-
West Central West Virginia

CITY           SKY/WX    TMP DP  RH WIND       PRES   REMARKS
CHARLESTON     CLOUDY    62  59  90 W5        29.92R
$$

WVZ022-031-010500-
North Central West Virginia

CITY           SKY/WX    TMP DP  RH WIND       PRES   REMARKS
CLARKSBURG     MOCLDY    60  59  96 S5        29.91S
MORGANTOWN     CLOUDY    62  58  86 S5        29.91S
$$

WVZ025-035-042-045-010500-
Southern West Virginia

CITY           SKY/WX    TMP DP  RH WIND       PRES   REMARKS
BECKLEY        CLOUDY    59  56  89 S9        29.96F
LOGAN            N/A     61  59  94 CALM      29.92R
BLUEFIELD      MOCLDY    61  57  87 S5        30.01F
LEWISBURG      LGT RAIN  61  58  89 E3        29.97F
$$

WVZ047-010500-
Northern Mountains of West Virginia

CITY           SKY/WX    TMP DP  RH WIND       PRES   REMARKS
ELKINS         CLOUDY    61  56  83 SE7       29.95S
$$

WVZ052-010500-
Eastern Panhandle of West Virginia

CITY           SKY/WX    TMP DP  RH WIND       PRES   REMARKS
MARTINSBURG    CLOUDY    66  64  93 S6        29.85R
PETERSBURG     CLOUDY    66  58  73 CALM      29.88S
$$



USA.gov is the U.S. government's official web portal to all federal, state and local government web resources and services.